Wind_Speed
7 6 6 5 5 4 4 4 4 4 3 3 3 3 3 3 3 3 3 3 3 4 5 6 5 5 5 6 7 6 4 1 3 0 2 3 5 8 9 10 10 9 7 5 4 3 3 3 4 3 5 6 8 11 9 10 11 7 3 3 4 4 4 4 3 3 4 3 5 2 6 7 5 6 13 12 15 22 21 20 21 18 20 24 27 31 31 29
7 6 6 5 4 4 4 4 4 4 3 4 3 4 3 3 4 3 3 3 5 5 6 6 5 5 5 6 8 6 2 2 2 2 3 4 7 9 11 10 10 9 7 5 4 5 5 5 5 4 8 10 10 11 10 10 13 8 4 3 5 5 5 4 4 3 3 4 4 5 8 9 6 7 11 8 11 20 19 16 22 26 27 29 31 30 29 28
6 6 5 5 4 4 3 3 4 4 4 5 5 5 5 4 4 4 3 3 3 4 5 5 4 5 5 7 8 6 2 3 2 3 4 5 7 10 11 10 10 9 8 5 5 7 7 8 6 5 8 11 13 13 11 10 11 9 6 3 6 6 5 2 6 6 5 6 8 7 9 11 8 6 8 11 13 15 11 8 14 23 26 28 29 29 28 25
5 5 4 4 4 4 3 4 4 5 6 6 6 6 6 5 4 4 4 4 3 4 4 5 5 6 6 7 8 7 3 2 2 4 6 7 9 11 11 11 10 9 8 6 6 6 6 7 6 6 7 7 10 9 9 11 9 6 8 5 6 7 5 2 6 6 5 6 8 9 11 12 13 14 10 14 13 8 7 9 9 21 26 27 26 26 23 20
5 4 5 5 4 4 4 4 5 6 7 7 7 6 6 5 5 5 4 4 5 5 6 6 7 6 6 7 8 7 3 2 2 3 6 9 11 12 12 12 10 9 8 6 6 4 3 4 5 7 6 4 7 5 6 13 13 5 7 13 12 8 4 4 5 4 3 6 7 8 10 8 11 19 16 15 10 3 7 11 13 23 25 25 25 24 22 20
5 5 5 5 5 5 5 6 6 7 7 7 7 7 7 6 6 6 6 5 5 5 6 7 7 6 6 6 8 7 2 1 3 5 7 10 11 11 12 12 10 9 8 6 5 3 3 7 7 7 4 3 6 4 9 14 14 6 5 12 15 10 3 5 5 3 3 6 6 6 8 12 17 17 21 24 14 7 9 12 20 23 23 25 24 24 23 24
6 6 6 6 7 6 7 7 7 8 8 8 8 8 8 7 7 7 6 6 6 6 6 6 6 6 6 7 8 6 1 1 4 8 10 11 12 12 11 11 10 8 7 5 4 3 6 8 8 8 4 4 6 7 13 17 12 10 6 6 9 8 4 5 5 2 4 8 8 9 10 11 16 12 17 23 17 15 15 18 25 24 25 26 26 27 26 27
7 7 7 7 7 7 7 7 8 8 9 9 10 9 9 8 8 7 7 6 6 6 6 6 6 6 5 7 7 5 2 3 7 10 12 13 13 13 12 11 9 8 6 3 2 5 7 6 7 7 3 3 5 4 8 10 4 6 4 3 4 7 4 4 4 4 7 11 11 13 15 16 22 21 18 18 18 23 23 25 27 27 28 27 28 28 27 28
8 7 7 7 7 7 7 7 8 8 9 9 10 9 8 8 8 8 7 6 6 6 6 5 6 6 6 5 5 3 2 4 8 12 15 14 12 12 11 10 9 8 6 2 1 3 6 5 5 5 4 5 7 7 8 4 2 1 2 5 6 6 3 3 3 5 7 11 14 15 17 19 21 19 17 16 20 23 25 27 27 28 29 27 27 26 26 27
8 7 7 7 6 6 7 8 8 8 9 9 10 9 8 8 8 8 7 6 6 5 5 5 5 5 5 4 3 2 1 6 9 13 15 13 10 10 10 9 8 7 6 3 1 2 5 6 7 7 6 7 5 8 9 1 2 7 6 8 8 9 6 3 3 5 9 10 16 16 11 10 10 7 8 14 21 22 24 27 25 27 27 26 26 25 25 25
8 7 6 6 6 6 6 7 8 9 9 10 11 9 8 8 9 8 6 5 4 4 4 3 4 4 4 3 4 2 4 10 12 14 14 13 12 10 9 8 7 6 6 4 2 2 5 7 10 9 6 4 5 10 8 2 6 9 8 9 10 13 12 6 5 9 10 8 19 23 10 11 13 7 9 16 20 21 24 26 24 26 26 25 24 24 23 23
7 6 5 5 5 5 5 6 7 8 9 10 11 10 8 8 10 8 6 5 5 4 2 2 4 3 0 4 7 5 8 13 14 14 13 13 13 13 10 7 7 6 6 4 3 5 7 7 8 6 4 3 5 6 5 6 10 9 5 4 8 10 8 8 6 15 10 7 22 23 8 9 10 8 16 20 20 21 24 24 23 25 24 24 24 23 23 22
6 5 5 5 5 5 5 6 7 8 9 10 10 11 9 9 10 9 6 6 6 3 1 1 1 1 2 5 7 7 10 16 15 15 15 13 11 11 11 7 6 5 5 5 4 6 7 7 7 5 5 5 4 3 6 10 8 6 3 1 4 7 5 8 2 14 8 9 22 15 1 2 5 11 20 20 20 22 23 22 22 23 23 23 23 23 23 21
5 5 5 6 5 6 6 6 7 8 9 10 11 11 9 9 11 9 7 6 5 0 2 2 3 4 4 4 6 9 13 16 15 15 16 15 13 10 9 8 8 7 6 6 5 5 5 5 5 6 6 5 5 5 7 7 2 2 2 1 1 1 4 8 5 10 6 5 15 7 2 3 3 11 20 20 19 22 22 20 20 22 22 22 22 23 23 21
5 5 5 5 6 6 6 6 7 8 9 10 11 10 8 10 11 10 9 5 4 4 3 3 5 4 6 5 6 11 15 15 12 16 20 21 20 14 9 7 6 6 6 6 5 4 2 3 4 4 3 4 4 4 4 4 2 1 2 3 2 2 4 6 5 5 4 4 5 4 4 3 4 11 20 20 19 22 22 19 19 21 21 22 21 22 22 21
5 5 5 5 6 6 7 8 8 9 9 10 10 9 8 9 10 9 7 8 10 7 3 4 7 6 6 5 8 12 14 12 10 16 22 24 21 16 12 6 2 4 6 6 5 2 0 2 3 3 3 3 1 3 3 4 5 3 2 2 3 1 2 3 3 2 6 5 3 4 6 3 3 12 20 20 21 24 23 19 19 19 19 20 21 21 22 21
6 6 6 6 7 7 8 9 9 9 9 8 9 8 6 6 10 9 6 7 10 11 9 8 7 6 5 8 12 15 14 10 9 17 23 23 17 12 10 6 3 3 4 6 6 2 1 1 1 2 2 3 2 4 3 4 3 4 2 0 4 1 1 2 3 4 4 6 6 6 8 4 4 14 20 19 22 24 22 20 18 18 18 18 19 20 20 20
7 7 7 7 7 7 8 9 10 10 9 8 8 7 4 3 9 11 8 5 6 8 10 9 6 4 2 10 15 14 11 8 9 18 24 19 12 9 8 6 4 2 2 4 5 1 2 2 1 1 4 5 4 6 3 2 2 3 3 2 4 3 2 2 4 3 6 8 7 9 9 6 6 12 17 18 22 23 21 19 19 18 18 18 18 19 19 20
7 8 8 8 8 8 8 9 10 10 9 7 7 5 2 1 6 12 12 10 8 6 5 9 8 3 2 10 17 12 8 9 8 18 24 16 9 7 7 7 5 4 3 2 2 1 2 2 4 3 4 3 3 3 4 6 5 5 5 3 3 4 4 2 3 2 7 9 6 8 9 7 7 8 13 17 20 22 21 19 19 18 18 18 18 19 19 19
7 8 8 9 9 9 9 9 10 9 8 7 7 4 0 2 3 7 14 18 18 12 9 10 10 6 4 11 17 11 9 10 9 19 23 16 9 6 9 9 3 3 3 0 1 1 3 5 3 1 4 5 5 4 4 4 3 2 2 2 3 3 4 3 3 2 8 8 4 6 9 7 7 6 10 18 19 20 20 18 18 17 17 18 18 18 18 18
8 9 9 10 10 10 10 10 9 8 7 7 6 2 1 2 3 4 10 16 15 13 12 13 14 13 9 12 16 10 11 13 14 23 23 16 11 6 10 10 2 3 5 3 0 2 5 5 0 5 6 5 6 6 3 3 3 3 2 3 5 2 3 3 2 3 4 7 3 6 10 6 5 5 8 15 14 13 17 17 17 18 17 18 18 18 18 18
8 9 10 10 11 11 10 10 8 7 7 5 3 3 3 4 6 8 9 10 10 12 10 9 14 18 12 12 13 9 12 15 17 27 25 18 14 9 11 11 5 3 5 5 4 4 5 3 3 6 5 5 5 4 6 6 5 5 3 2 3 3 2 3 4 3 3 6 4 6 9 5 4 6 7 10 10 11 16 19 19 19 19 19 19 19 19 19
8 9 10 10 10 10 10 9 7 6 6 4 3 3 4 5 8 10 9 8 6 9 10 8 13 19 16 13 13 8 10 12 13 24 29 23 17 11 10 8 5 4 6 6 4 4 3 2 6 6 6 5 5 7 9 7 5 4 4 2 2 4 2 2 5 3 3 4 7 8 7 4 3 5 6 9 13 14 16 17 17 18 19 19 20 19 20 19
10 10 10 11 10 10 9 6 5 7 6 4 4 4 4 5 8 10 7 5 4 5 8 9 11 17 16 13 15 9 6 11 13 19 27 27 19 9 6 5 5 5 6 5 4 7 2 4 5 6 6 4 3 7 9 6 6 4 2 3 2 4 2 3 3 3 4 5 8 10 5 1 2 3 2 6 11 13 14 16 15 15 16 17 18 18 17 18
11 11 11 11 9 9 8 4 5 8 7 4 5 4 3 3 6 10 5 4 3 4 6 7 8 14 15 15 18 8 1 9 15 18 23 27 19 7 4 6 5 5 6 5 6 6 1 4 6 6 6 7 6 5 6 4 5 5 1 2 3 3 4 5 4 4 3 1 4 7 2 2 2 4 3 3 5 7 11 15 14 15 17 16 17 16 15 15
11 11 10 10 8 8 6 4 7 9 7 4 5 5 3 2 6 12 6 4 3 5 6 7 7 11 14 17 19 6 2 6 13 17 23 25 18 6 5 7 4 5 4 3 4 2 3 7 8 6 5 8 7 3 3 4 4 4 3 3 4 3 4 6 4 3 1 4 5 6 4 2 2 3 4 4 4 4 7 11 13 17 18 17 18 17 15 14
11 10 10 9 8 8 7 5 6 7 6 5 6 5 2 2 8 12 4 5 3 4 5 6 6 9 12 15 17 6 1 8 9 16 24 24 17 8 5 6 4 5 3 1 4 1 3 8 8 8 7 7 6 4 3 3 4 3 4 1 4 5 6 6 3 3 4 2 2 5 5 1 2 3 4 5 5 4 5 6 11 16 18 18 18 17 15 15
11 10 9 9 9 10 8 6 5 6 6 5 5 5 2 4 9 9 5 4 3 4 4 5 5 9 11 11 16 10 2 8 8 11 20 23 18 8 5 8 5 6 5 4 3 4 3 6 6 6 7 5 3 4 4 2 1 6 5 3 5 7 7 6 3 4 2 2 4 4 4 1 1 0 3 5 5 4 6 6 9 14 17 17 18 16 16 16
11 10 9 10 11 11 9 7 6 7 6 5 5 4 4 8 9 4 5 2 2 3 3 6 5 10 14 9 13 13 6 7 7 8 16 22 22 9 3 10 11 4 4 6 3 2 2 2 2 3 5 3 4 7 4 3 3 6 6 6 7 6 4 4 3 2 1 1 4 5 4 3 1 1 3 3 3 4 6 5 9 16 18 18 18 17 17 15
10 10 10 11 11 9 8 8 7 7 6 5 5 4 7 8 6 4 5 0 1 3 5 7 4 9 15 8 8 14 8 6 9 9 14 22 29 22 5 9 16 5 4 7 3 1 2 1 2 3 3 2 5 7 5 5 3 6 7 5 6 5 2 2 2 3 4 1 5 5 1 3 0 1 2 2 2 4 5 5 7 14 18 19 19 18 17 15
10 10 11 12 11 10 10 9 8 7 7 5 3 4 8 4 3 6 3 1 1 5 6 5 4 7 11 5 5 11 6 7 11 9 9 13 22 25 12 7 12 6 4 7 4 3 5 3 2 1 2 3 3 6 5 2 4 6 4 3 4 5 3 4 4 4 4 2 5 5 4 3 1 1 1 2 4 1 5 7 7 11 17 20 20 19 17 15
9 10 12 13 11 11 10 9 9 8 7 5 2 5 6 4 6 3 1 4 1 3 4 2 4 5 6 4 4 7 4 5 10 7 5 5 7 12 10 5 6 6 5 6 5 6 5 2 4 3 3 6 4 4 7 6 7 7 4 5 5 4 4 4 4 3 1 4 5 5 5 3 1 1 1 2 4 5 3 11 14 16 19 20 20 18 16 15
8 10 12 12 11 10 9 8 9 7 6 4 3 3 5 5 3 1 3 3 0 2 2 2 4 5 4 5 5 6 4 3 7 7 3 4 5 5 7 6 6 4 2 3 4 5 4 5 6 4 4 7 6 3 4 5 5 6 4 4 4 3 4 3 3 3 2 4 7 6 3 2 1 1 1 2 4 7 2 15 20 19 20 20 18 17 15 14
7 11 11 11 11 11 10 9 8 7 5 4 4 3 8 6 0 1 2 2 1 3 3 2 5 6 4 3 2 4 4 3 5 7 5 4 5 4 5 7 8 4 0 2 3 3 3 4 4 3 3 5 5 2 2 1 3 4 2 3 4 3 3 1 2 2 3 5 7 6 2 0 1 0 1 2 3 6 4 13 17 17 18 17 16 16 15 15
8 11 12 13 12 11 11 10 8 7 5 8 9 7 6 3 2 1 1 4 2 3 5 4 4 5 5 2 2 3 4 3 3 6 5 4 3 3 3 5 7 5 3 3 2 2 3 4 5 2 2 2 3 1 1 2 2 3 0 4 2 0 3 2 3 4 4 4 4 3 1 2 1 1 2 1 2 5 7 10 13 14 15 15 16 17 16 16
8 11 14 14 12 10 12 11 9 5 5 9 11 6 3 2 2 1 1 2 1 2 5 6 5 5 5 4 3 6 3 1 3 4 3 3 3 3 3 2 5 7 4 2 0 2 3 5 7 5 4 2 2 4 3 3 1 2 4 2 4 2 5 2 3 4 1 2 2 1 0 2 1 2 2 0 1 1 4 6 10 12 13 15 17 17 16 15
9 13 15 15 14 10 8 11 10 6 10 14 10 3 2 1 1 2 1 2 2 2 2 4 3 3 4 3 3 7 6 3 4 4 2 2 3 4 4 3 5 8 5 2 1 0 1 4 7 4 3 2 2 4 4 4 3 3 2 3 5 1 4 3 2 4 4 2 2 1 2 3 0 0 2 2 3 3 3 5 8 10 13 15 16 17 16 15
9 13 15 16 15 10 6 8 7 9 16 17 7 3 3 0 0 1 2 3 1 2 5 3 1 2 2 2 3 6 6 4 4 4 3 2 2 4 4 3 4 8 10 5 1 1 2 2 7 2 2 4 3 4 4 6 5 4 2 2 2 3 2 2 1 2 2 2 4 3 2 2 3 3 3 5 6 6 6 7 8 11 16 18 18 18 18 17
6 9 13 14 13 13 10 5 7 13 17 11 3 2 3 1 1 2 3 3 0 2 4 1 1 2 2 2 2 4 4 3 3 3 3 2 2 3 5 3 5 11 14 5 2 2 1 1 5 4 4 3 3 4 2 4 6 5 4 4 3 3 1 2 1 1 1 1 3 4 4 2 3 4 4 6 8 8 8 7 8 15 20 21 19 18 19 17
4 5 10 11 8 11 9 8 13 18 13 4 3 3 1 1 1 3 5 3 1 3 2 0 1 2 2 3 2 2 3 2 3 3 2 2 2 2 4 3 3 10 12 5 3 2 2 2 3 6 6 4 2 2 1 1 3 3 4 4 4 2 1 2 2 1 2 1 1 3 5 4 4 2 5 6 7 8 10 9 10 18 22 21 18 17 17 15
4 4 8 10 7 4 5 10 15 13 6 3 3 2 1 2 1 3 6 4 3 3 2 2 1 1 1 3 2 2 3 3 3 2 2 2 3 2 4 5 3 6 7 5 3 3 1 1 1 4 5 3 1 3 1 1 1 2 2 1 1 2 3 4 4 3 1 1 2 2 4 6 4 2 5 6 6 8 12 13 13 18 21 19 17 15 14 13
8 4 6 9 8 2 7 11 10 5 4 4 3 3 2 3 1 2 5 5 3 3 2 1 1 1 1 1 2 2 2 2 3 3 2 1 2 0 3 6 5 4 2 1 2 1 1 1 0 3 4 2 5 4 1 0 3 5 3 1 3 3 4 3 3 4 2 2 2 1 3 5 4 4 5 7 8 9 10 11 12 14 16 15 14 13 13 13
14 8 6 7 5 4 11 9 7 5 5 3 3 5 4 2 2 2 4 5 3 2 3 2 1 2 0 0 1 1 0 1 1 2 2 1 1 2 2 5 5 2 1 0 2 2 1 2 1 3 4 3 5 5 3 2 4 4 2 2 3 2 3 4 5 3 1 3 2 1 3 5 5 6 8 9 10 9 10 10 10 12 13 12 12 13 14 15
20 18 15 10 2 5 10 5 1 3 2 2 3 4 4 4 4 2 2 4 3 1 2 1 1 2 1 1 1 1 0 2 1 1 2 1 1 1 1 4 4 3 2 1 1 3 2 1 1 2 4 6 6 6 6 4 3 2 0 1 3 3 3 1 1 2 0 3 1 1 4 5 4 5 7 8 8 9 12 13 12 13 13 13 14 15 16 19
13 15 20 19 12 12 12 8 8 6 2 3 4 3 3 4 4 3 2 3 3 2 1 1 2 0 2 1 1 1 1 1 1 2 3 2 1 1 0 2 2 3 2 1 2 2 0 2 2 4 2 4 4 4 4 4 3 1 1 1 2 2 2 1 1 3 1 3 1 1 6 6 4 3 4 6 6 8 12 14 15 15 15 14 14 15 17 18
4 4 9 17 21 24 19 13 12 8 4 5 4 3 3 2 1 2 2 2 4 3 1 1 2 1 2 4 3 3 3 2 0 2 2 2 2 2 1 0 2 2 2 1 1 0 1 0 1 5 4 4 5 7 6 2 3 3 3 1 2 2 2 4 3 2 3 1 4 5 7 6 8 5 5 7 7 7 11 14 15 15 14 14 15 16 17 18
5 2 1 5 11 16 15 12 11 7 3 4 3 1 3 2 1 2 2 1 3 4 2 2 4 2 2 4 3 2 4 4 3 3 1 1 3 2 1 2 2 3 2 1 2 1 3 2 2 3 5 7 7 9 9 4 3 5 4 3 3 4 4 6 3 5 3 1 5 7 4 4 10 8 6 7 7 7 10 13 13 13 15 16 17 17 18 19
5 3 4 5 3 3 6 8 10 10 7 5 3 1 3 3 2 1 1 1 2 4 3 2 5 4 1 1 2 1 4 4 3 1 0 1 3 3 2 3 2 2 1 1 1 3 4 1 3 2 5 8 6 8 8 5 4 4 4 5 4 5 6 5 6 7 5 3 7 8 5 9 13 11 8 8 8 9 11 13 13 15 16 16 16 17 19 21
11 8 6 8 6 4 5 5 9 12 8 5 4 2 2 3 2 1 1 2 2 4 4 1 3 6 4 0 3 1 2 2 1 2 1 1 2 1 1 2 2 2 2 1 0 2 3 2 3 2 5 9 8 7 4 2 4 4 4 6 5 7 8 7 6 7 6 7 10 11 11 14 13 10 10 11 11 12 13 14 16 17 16 16 17 19 22 24
10 9 11 15 12 8 7 4 6 8 5 4 4 1 1 3 1 2 1 3 1 3 4 1 4 7 4 0 4 3 4 4 3 5 3 1 2 1 1 2 2 3 5 3 1 1 2 2 3 1 2 7 7 6 5 4 6 6 5 5 5 6 6 5 5 5 5 7 10 9 11 13 10 9 12 13 13 13 14 16 17 16 16 17 19 22 25 28
16 16 19 18 9 5 5 4 4 5 4 4 2 1 1 1 2 2 1 2 2 0 1 1 3 5 2 3 4 4 5 5 6 7 6 3 3 3 2 2 2 2 4 2 1 2 2 1 3 4 3 6 5 4 8 9 4 4 5 5 6 6 4 4 4 4 5 7 9 7 8 9 7 6 8 11 13 14 16 16 15 14 16 18 21 24 28 30
21 18 15 14 7 4 4 3 4 5 2 1 1 1 1 1 3 3 2 1 2 2 0 1 1 2 2 1 0 3 5 5 7 8 7 7 7 6 6 5 3 3 2 1 0 1 2 1 1 2 1 6 5 6 9 7 5 3 5 5 7 6 4 4 5 5 6 6 6 6 7 8 7 5 6 9 11 14 15 15 14 15 17 19 22 27 31 31
Wind_Direction
85 79 73 66 57 53 52 51 45 38 30 20 11 3 356 349 344 325 309 291 292 296 305 315 318 326 336 334 335 335 334 105 128 243 274 305 317 314 314 316 314 312 313 297 262 234 210 219 271 252 214 219 237 239 227 231 216 186 139 157 242 213 205 219 207 226 161 169 224 162 81 119 131 114 114 100 94 91 85 83 89 96 104 123 137 140 145 152
81 73 67 61 58 58 53 47 40 35 31 22 17 12 5 1 358 347 318 292 286 288 296 303 311 321 328 335 336 336 328 164 177 265 252 288 305 318 319 314 312 308 310 297 248 243 236 234 266 277 252 235 231 233 229 220 199 178 122 173 226 203 221 222 179 192 131 145 167 111 88 110 138 141 124 102 78 83 82 80 96 101 106 122 132 139 146 152
76 69 63 60 59 59 54 46 40 36 32 24 20 14 8 4 356 354 343 321 302 293 300 303 311 317 322 332 336 342 321 202 212 256 249 281 308 320 321 315 313 311 311 302 264 264 262 254 261 290 279 246 231 228 219 201 192 191 157 189 239 218 246 217 151 138 108 122 129 117 95 81 73 102 123 114 76 63 70 69 99 110 117 127 134 142 146 148
63 57 51 47 44 42 41 35 35 33 27 20 15 9 5 1 350 344 336 329 321 311 310 306 309 312 317 325 335 341 316 243 242 264 262 287 312 316 318 317 314 313 309 307 298 287 273 271 273 292 296 260 248 238 213 193 191 193 171 204 237 219 248 177 133 116 96 93 121 133 105 82 66 65 96 121 85 42 46 50 111 131 129 132 135 139 140 140
51 44 38 36 34 33 30 29 28 23 16 10 4 360 355 349 342 335 327 322 315 313 311 307 308 307 313 321 333 337 321 308 306 302 293 297 310 314 318 316 312 313 307 307 314 308 288 311 322 303 297 277 281 279 233 209 198 204 200 215 226 227 241 181 148 109 79 70 100 113 99 107 83 57 63 93 89 75 50 58 121 133 130 133 134 136 137 138
48 42 40 37 35 32 28 25 20 15 10 5 360 354 348 339 331 324 321 321 314 315 312 309 311 305 309 316 327 337 335 282 314 330 318 307 314 319 319 313 312 310 303 302 297 313 337 331 320 293 281 265 269 247 263 246 210 212 245 223 226 239 242 179 161 103 65 72 74 83 100 113 96 64 61 75 78 89 68 91 126 128 129 136 135 135 134 132
46 41 39 33 31 28 25 23 18 16 11 8 3 355 349 340 331 321 312 312 310 311 307 311 317 306 309 317 329 346 358 254 328 336 331 326 327 326 319 311 315 311 300 291 273 319 333 318 309 289 267 251 259 235 264 270 225 203 250 239 230 257 268 194 171 112 81 80 82 93 104 101 98 89 70 73 80 90 93 111 124 126 130 134 128 124 123 122
47 41 37 31 33 30 30 27 22 21 15 10 4 355 348 340 335 325 312 304 299 300 298 306 311 305 313 320 338 5 45 357 341 342 342 337 327 322 314 308 314 312 303 288 306 349 325 313 332 329 303 271 304 299 296 299 255 201 243 296 280 290 293 192 157 124 101 95 104 92 88 91 98 98 77 76 90 97 107 114 118 122 122 121 116 114 117 118
48 44 37 37 37 32 32 28 25 22 15 10 3 358 351 345 341 331 323 310 295 291 290 297 300 301 313 322 351 28 58 354 342 349 349 338 326 321 314 309 313 312 308 289 314 338 309 302 330 352 342 309 322 331 338 341 304 293 307 352 346 333 357 157 143 124 113 109 113 93 93 101 99 93 73 80 100 107 115 112 116 121 115 111 111 112 115 115
47 41 37 36 31 30 31 28 26 21 14 8 3 2 358 355 349 338 328 315 301 292 290 292 288 299 312 330 13 50 16 341 336 345 344 337 334 330 319 316 313 308 310 294 220 290 291 284 293 308 308 308 320 324 333 336 290 325 336 345 330 316 316 211 206 143 121 119 123 113 107 85 69 87 87 94 108 119 116 105 111 116 108 107 110 112 114 115
42 37 33 28 23 26 29 30 27 20 15 8 3 1 355 354 354 349 338 329 320 299 295 287 284 307 319 4 49 70 3 346 338 339 339 341 344 336 325 321 320 312 308 285 202 269 280 273 288 293 287 309 322 321 336 4 327 330 344 339 309 307 304 260 216 159 129 119 129 120 97 42 40 70 111 111 114 122 113 100 104 106 103 106 108 110 112 113
35 29 26 21 18 18 24 27 20 15 12 6 2 358 351 350 355 355 347 352 351 312 290 279 292 319 350 80 56 41 4 350 345 350 352 352 346 339 333 322 323 319 310 298 235 257 272 278 291 287 273 307 317 323 335 330 329 324 347 334 300 327 310 273 210 163 141 135 138 122 82 25 33 84 110 116 118 117 107 97 98 99 101 105 106 108 109 111
22 18 18 16 12 7 13 12 6 7 5 2 357 353 351 348 350 351 344 344 340 319 258 306 316 32 131 100 44 16 357 352 354 1 2 360 351 341 333 327 330 323 315 316 285 271 275 282 289 275 276 293 294 299 297 307 317 298 318 166 296 351 324 301 211 154 122 144 153 139 113 27 54 111 118 122 124 115 101 95 98 99 102 104 105 108 106 111
6 5 9 11 9 2 3 359 356 358 358 358 352 348 346 346 352 357 352 338 331 29 119 77 114 96 91 93 26 3 350 351 0 3 1 0 2 356 335 326 325 324 333 330 312 298 282 273 282 277 274 272 270 288 305 312 294 255 329 17 345 359 291 336 52 125 88 168 169 142 142 158 133 128 126 129 130 119 103 98 103 103 105 105 106 108 106 110
358 356 358 6 3 357 355 348 348 348 349 351 347 345 345 350 359 2 1 18 71 105 124 106 130 107 71 74 11 355 346 350 7 8 3 357 356 0 352 331 314 318 344 346 330 333 307 250 263 280 283 270 274 311 337 337 324 48 45 314 346 131 267 338 45 102 110 199 184 111 115 150 168 135 128 131 129 121 111 107 109 107 108 108 107 108 108 110
356 355 353 355 353 352 349 343 343 341 342 345 344 347 348 356 7 8 24 76 84 71 73 96 113 110 73 43 359 352 352 359 11 10 4 353 347 352 353 348 355 347 2 8 348 336 272 240 260 283 305 305 8 60 23 1 342 357 101 266 309 49 292 327 355 9 139 150 22 74 133 161 175 129 127 131 128 121 115 114 114 112 112 111 110 112 113 116
0 360 355 349 346 345 343 341 339 337 341 343 344 348 349 8 18 21 49 104 89 65 73 90 104 114 70 21 357 348 356 4 3 5 359 348 343 349 353 0 30 5 354 350 332 324 162 220 238 268 339 353 31 78 43 354 336 329 26 324 285 271 301 288 288 342 78 96 44 65 112 138 142 123 125 130 127 121 119 121 121 118 117 115 116 117 119 121
2 360 355 349 344 340 339 339 336 336 340 343 348 350 344 15 35 41 55 124 118 77 73 64 71 115 37 5 356 345 355 2 355 360 353 344 347 351 353 3 19 10 320 305 300 274 200 257 122 72 18 15 14 65 92 252 227 270 311 323 296 292 291 269 239 293 39 74 90 90 103 120 114 118 124 127 126 122 122 126 125 124 123 123 122 121 123 124
359 357 355 351 348 343 340 338 336 337 339 347 354 351 334 46 60 56 61 84 87 83 71 40 46 91 285 345 355 353 6 10 353 352 351 352 3 6 6 2 7 11 354 329 295 177 165 3 51 45 347 329 336 71 167 217 214 233 258 238 244 278 288 276 259 270 86 83 83 102 115 122 110 112 119 122 125 121 122 126 126 128 128 127 127 125 126 125
354 355 354 352 350 343 339 337 336 335 339 352 355 349 34 102 89 58 61 72 74 81 80 53 45 34 348 350 360 9 25 24 3 355 360 6 10 30 23 3 353 12 351 296 260 197 101 60 61 190 245 259 272 262 226 236 239 240 279 287 266 270 294 283 283 318 106 93 38 102 114 109 107 106 118 125 125 122 125 129 129 132 132 133 133 131 132 131
351 350 348 347 344 339 337 337 338 342 351 358 357 4 70 66 121 114 74 76 79 84 78 57 42 28 16 6 7 17 24 26 18 10 13 15 18 37 19 14 63 29 341 312 29 60 70 70 334 242 242 267 279 273 295 357 351 344 322 316 327 291 261 265 256 298 91 94 67 108 102 84 86 82 109 124 125 129 136 137 136 137 137 139 139 138 140 141
351 346 344 343 339 339 341 341 347 358 5 6 14 61 74 76 120 134 106 92 83 78 75 52 35 29 26 20 17 21 19 19 16 16 20 20 29 35 15 29 69 24 351 5 42 39 42 64 286 288 288 314 323 338 28 33 17 357 344 338 330 300 260 297 306 323 60 100 138 130 103 85 68 59 71 92 103 127 140 143 144 144 143 146 149 149 148 148
355 349 347 345 344 343 343 345 354 5 11 26 55 75 90 101 126 131 115 107 85 64 55 35 22 21 22 22 19 21 28 23 4 10 17 15 21 29 20 33 44 20 13 20 59 69 44 270 281 312 335 341 353 22 38 32 18 17 20 41 276 313 17 313 308 326 33 93 138 130 101 85 61 52 50 75 99 120 136 144 147 152 154 156 158 156 154 156
357 353 349 348 347 342 343 347 347 2 13 29 46 65 107 113 143 148 124 99 85 50 38 30 17 15 16 13 9 6 33 31 9 8 13 10 11 20 23 24 33 30 3 2 86 102 112 260 307 347 355 17 53 31 35 31 0 338 37 92 220 313 327 233 280 331 25 61 121 121 91 94 128 95 70 87 106 118 131 139 144 153 158 159 160 160 162 165
357 354 350 350 351 346 351 350 341 359 8 16 27 43 106 107 154 164 145 88 54 358 14 22 12 13 11 6 3 357 89 31 20 13 9 10 11 13 13 13 32 21 349 12 75 92 38 317 6 11 355 35 72 47 33 43 358 323 292 152 205 263 288 274 324 7 32 358 176 141 107 263 159 137 169 134 107 117 128 133 141 151 156 160 163 166 171 172
357 354 352 356 358 359 359 348 344 353 358 3 13 33 97 107 158 164 146 71 17 330 354 5 357 5 9 7 2 0 151 17 24 25 14 10 12 28 23 2 26 20 343 33 68 102 351 357 27 36 23 45 61 46 16 62 46 328 265 213 234 256 286 286 324 13 193 244 222 176 189 241 166 179 196 165 135 133 128 131 145 155 161 167 170 172 175 177
359 357 358 1 2 5 358 345 348 352 358 2 6 29 85 118 159 168 136 45 10 328 349 351 350 1 6 9 11 40 151 338 9 31 20 14 15 47 53 1 14 4 319 72 31 350 2 1 17 35 41 50 41 353 315 62 72 287 260 317 316 297 288 280 266 227 223 270 262 199 197 201 183 203 184 156 149 155 151 149 159 165 170 173 173 176 179 182
0 1 2 2 1 1 357 351 356 2 5 360 8 29 64 124 158 165 102 67 333 333 350 339 352 7 6 15 27 57 98 347 10 24 19 21 21 41 66 22 4 313 321 81 32 331 34 17 7 35 42 39 6 301 280 75 95 256 267 334 306 275 265 258 230 232 249 355 304 247 187 177 284 137 144 151 153 182 192 184 179 177 177 175 174 179 182 186
2 3 4 4 1 1 5 9 8 7 3 357 16 38 96 123 145 141 72 106 300 341 341 345 348 354 359 12 27 35 45 20 26 16 19 29 29 35 108 21 12 324 1 69 112 295 48 38 354 68 61 12 295 286 263 169 225 277 308 320 295 277 252 218 194 211 42 59 269 262 189 175 277 107 157 174 177 205 200 187 189 187 182 180 180 184 187 192
0 2 6 4 0 3 8 6 2 3 1 2 18 68 120 125 127 76 39 197 331 348 325 351 346 339 357 7 9 13 22 15 13 23 28 34 36 40 69 18 15 29 31 32 76 241 297 328 7 71 68 295 276 298 283 194 236 326 351 342 317 324 16 97 110 102 63 339 269 283 174 143 120 164 182 218 231 206 182 175 191 188 184 184 185 186 188 192
2 4 4 1 1 5 2 357 359 1 0 1 20 111 127 109 70 87 68 276 323 352 339 351 340 342 5 24 357 354 357 352 357 22 30 26 35 35 39 17 5 20 28 8 8 340 350 10 1 1 356 336 308 322 336 48 39 13 9 14 348 338 17 30 9 53 60 283 274 327 27 90 108 214 204 279 308 273 172 173 182 182 179 179 182 184 187 192
5 8 5 2 2 1 354 350 356 358 358 14 65 143 140 54 31 90 314 320 330 353 342 305 320 338 351 17 11 339 329 345 355 26 54 34 43 36 40 38 358 8 14 357 346 347 357 340 323 319 345 12 24 346 349 8 22 17 11 32 27 355 10 11 349 15 23 247 270 339 24 56 50 250 277 317 337 339 220 184 179 177 175 176 182 187 194 203
11 14 9 5 4 2 359 356 359 3 6 33 107 130 96 73 44 282 306 342 329 314 326 276 302 317 334 18 5 329 336 347 354 16 51 68 67 41 38 39 31 40 350 334 355 357 340 310 337 0 348 12 41 46 3 340 346 358 1 40 51 40 28 345 313 345 323 271 292 325 28 38 330 278 295 309 333 346 267 188 182 179 180 182 187 193 202 209
23 20 14 14 14 9 11 8 5 20 34 74 120 77 62 77 166 339 344 305 283 327 337 309 316 333 16 51 342 337 6 332 356 26 21 38 48 17 16 16 20 43 58 1 17 15 6 317 334 16 334 353 30 105 167 234 309 304 259 108 83 86 101 224 260 324 297 281 303 330 28 153 283 262 256 287 340 21 94 172 178 180 184 185 189 196 202 208
36 27 24 26 24 25 30 26 27 44 78 96 82 61 72 96 243 34 339 277 307 332 315 326 8 22 14 359 322 22 43 317 352 51 36 35 51 12 9 355 359 22 43 36 355 354 18 279 267 316 327 357 16 293 202 80 354 293 320 81 35 12 155 193 238 240 263 290 307 347 46 207 224 286 276 2 27 53 90 136 156 168 179 184 190 196 202 212
46 40 37 31 30 38 39 35 38 56 121 105 72 54 105 148 214 152 288 293 325 316 316 345 30 44 353 328 344 4 26 325 347 41 46 57 69 20 4 339 10 29 39 73 355 349 14 285 281 337 4 34 21 319 337 51 9 327 34 19 288 232 139 127 292 281 4 1 300 94 193 256 320 296 269 25 341 30 91 125 148 163 176 185 194 202 211 220
55 52 44 35 34 33 36 47 58 93 104 89 77 80 146 162 200 188 305 327 286 294 21 22 22 35 351 327 332 340 351 354 356 23 44 58 40 15 357 331 23 35 18 31 119 201 73 296 293 345 17 319 329 339 356 42 72 72 40 301 295 14 93 89 338 331 27 20 279 147 187 230 143 271 244 217 226 228 211 188 180 184 193 202 210 216 221 221
61 56 45 37 36 26 24 56 75 112 95 78 75 94 97 96 288 246 321 339 291 356 55 62 353 53 34 345 312 326 354 8 351 9 45 47 17 37 33 325 349 16 1 2 48 202 113 323 293 323 37 305 330 30 7 3 32 82 110 306 24 61 11 6 18 334 2 318 293 299 280 228 182 199 211 213 215 214 221 215 204 207 209 215 223 224 221 219
57 54 39 32 43 43 45 84 114 105 87 72 82 93 90 139 10 10 352 348 310 74 61 46 318 30 48 39 319 320 358 14 338 357 57 48 359 48 51 341 317 347 351 13 103 280 96 87 284 303 348 324 1 46 25 326 349 33 48 14 41 122 195 303 309 172 169 273 291 309 320 304 229 211 182 200 210 204 209 213 214 217 215 220 228 225 217 216
56 62 34 23 47 54 62 103 93 79 73 80 127 105 92 141 36 23 31 21 62 80 67 320 14 15 345 8 5 332 354 352 341 13 62 22 9 45 30 21 318 332 345 33 93 335 3 94 270 300 339 7 12 7 167 268 325 16 36 13 358 5 347 341 332 153 137 195 270 311 306 275 249 206 163 189 207 200 203 210 218 221 222 226 229 220 215 220
74 75 28 27 45 53 89 85 63 57 62 83 92 76 73 119 131 32 38 40 66 71 94 154 105 89 355 359 350 336 347 339 354 54 65 17 41 45 356 8 332 320 350 31 38 7 16 68 255 296 336 8 280 255 214 251 230 135 102 80 82 41 39 23 335 318 57 142 205 254 280 269 254 194 172 187 197 196 202 210 219 226 226 225 222 219 224 235
78 68 12 29 33 54 104 71 35 33 75 74 78 78 90 114 114 38 30 34 52 43 44 99 96 62 64 11 332 334 7 355 357 45 63 51 78 220 324 352 335 306 3 14 305 326 98 101 51 285 293 263 255 271 299 291 125 114 99 108 112 88 86 92 274 282 342 314 265 208 252 267 257 219 199 193 195 196 199 206 215 219 219 220 225 232 241 251
70 59 25 27 28 106 106 73 14 35 69 98 108 78 77 99 80 43 23 28 30 14 24 37 61 57 38 223 21 350 34 32 4 50 68 106 158 240 299 6 2 335 22 340 288 337 38 96 43 299 300 299 292 308 333 18 75 70 21 47 92 112 131 157 196 195 215 288 313 52 267 271 262 237 214 197 197 203 207 214 216 212 217 229 239 244 252 264
72 60 48 41 42 123 103 93 94 80 76 118 86 61 65 70 64 58 23 22 18 31 58 12 33 53 293 229 120 241 201 69 25 47 73 105 162 242 338 38 36 29 36 150 279 342 338 177 53 10 344 342 341 343 344 340 10 55 48 47 80 104 94 97 171 101 242 254 197 150 250 261 260 235 215 201 201 210 218 224 226 226 234 245 248 252 262 271
77 60 52 54 78 98 91 111 130 122 137 110 73 54 74 55 50 69 52 34 32 55 102 336 322 288 303 341 46 322 27 82 310 3 40 40 277 240 159 45 32 33 42 187 235 333 274 195 100 91 45 336 328 311 304 307 325 15 140 103 94 108 95 107 108 91 213 267 336 196 236 268 292 258 232 231 223 226 232 231 231 235 241 249 254 262 272 278
88 70 49 54 70 80 83 98 111 111 141 119 68 32 65 55 35 69 50 39 32 33 89 356 328 276 11 27 36 2 358 359 25 65 47 350 283 253 211 334 333 345 357 14 304 307 107 48 139 141 175 219 237 258 266 282 303 290 283 273 173 171 123 106 104 158 200 270 322 245 228 278 295 264 244 250 236 232 237 231 228 235 245 258 265 272 279 285
80 64 40 56 63 68 69 71 81 94 133 125 105 26 56 47 351 33 25 34 35 28 67 57 33 44 36 33 41 333 330 353 37 70 65 290 279 285 267 251 302 317 303 18 354 67 88 359 280 173 219 231 227 256 273 279 255 247 263 274 219 191 126 108 151 222 184 69 297 255 224 287 287 273 262 258 245 235 231 227 234 251 263 268 270 276 284 288
88 93 87 96 87 53 57 59 68 77 77 88 107 83 53 48 29 30 342 331 27 35 49 43 23 24 25 74 83 322 333 2 19 32 71 281 303 342 337 255 272 329 329 31 13 101 107 271 248 190 280 280 269 266 263 249 240 225 229 258 235 183 162 166 216 222 171 169 253 263 274 279 279 282 277 259 242 229 227 235 255 271 273 270 273 281 288 291
109 113 83 86 104 118 115 96 81 78 66 65 79 58 77 84 55 263 288 3 359 10 37 52 327 335 320 214 108 107 330 8 334 278 208 214 296 344 17 276 257 343 15 40 356 119 118 260 249 196 285 296 293 283 275 262 267 259 245 242 210 181 189 200 222 223 203 224 251 268 279 274 272 276 273 261 243 234 241 254 265 269 269 271 280 288 293 295
117 123 110 103 99 93 96 91 86 83 52 42 73 53 98 114 130 264 2 59 17 331 21 71 291 304 299 8 103 145 212 188 203 239 202 149 307 255 166 225 238 331 3 32 350 20 100 294 292 101 326 299 288 290 316 310 264 249 252 239 206 205 222 222 231 231 228 252 264 270 279 279 272 264 263 257 244 241 250 257 259 264 274 285 291 294 298 299
116 122 120 111 91 44 66 74 86 95 40 17 75 153 3 118 186 194 38 60 131 176 338 245 291 312 337 67 105 181 219 211 223 238 218 199 233 217 201 206 197 318 343 12 348 3 67 309 328 48 20 287 275 305 318 314 294 266 273 252 218 220 230 226 232 217 210 251 275 285 283 279 276 264 257 252 245 245 250 256 264 277 289 294 296 299 302 301
118 121 118 108 87 17 44 57 52 77 71 332 110 152 150 182 192 149 81 334 145 120 320 276 324 1 21 38 208 238 258 263 258 255 245 239 241 239 253 260 230 221 228 141 272 301 99 95 325 38 349 272 285 320 319 333 9 319 271 223 206 219 227 237 259 247 226 237 267 275 264 269 283 288 280 272 259 251 255 265 280 292 295 296 299 302 302 299
Height
1531 1531 1531 1532 1532 1531 1531 1531 1531 1530 1530 1529 1529 1529 1528 1528 1528 1527 1527 1527 1527 1526 1526 1526 1526 1525 1525 1524 1523 1523 1523 1523 1522 1522 1521 1521 1521 1521 1520 1520 1519 1519 1519 1518 1518 1518 1518 1518 1519 1520 1520 1520 1519 1519 1519 1519 1519 1520 1523 1528 1530 1528 1526 1521 1519 1518 1518 1518 1518 1517 1517 1518 1520 1521 1522 1523 1525 1526 1529 1531 1532 1532 1533 1534 1536 1540 1543 1545
1532 1532 1532 1532 1532 1532 1531 1531 1530 1530 1530 1529 1529 1529 1528 1528 1527 1527 1527 1526 1526 1526 1526 1526 1525 1525 1524 1524 1523 1522 1522 1522 1522 1521 1521 1521 1521 1521 1520 1519 1519 1519 1518 1518 1518 1518 1517 1517 1518 1519 1519 1519 1518 1518 1518 1518 1518 1518 1522 1526 1526 1523 1520 1516 1517 1517 1516 1517 1517 1517 1517 1517 1519 1520 1521 1524 1529 1528 1530 1535 1535 1534 1537 1538 1540 1542 1544 1545
1532 1532 1532 1532 1532 1532 1531 1531 1531 1530 1530 1529 1529 1529 1528 1528 1527 1527 1526 1526 1526 1526 1525 1525 1525 1525 1524 1524 1523 1522 1522 1522 1522 1521 1521 1521 1521 1521 1520 1519 1519 1518 1518 1518 1517 1517 1517 1517 1517 1518 1518 1517 1517 1517 1517 1516 1516 1516 1519 1524 1521 1517 1516 1515 1516 1515 1515 1516 1516 1517 1517 1518 1520 1520 1521 1525 1529 1531 1534 1538 1538 1537 1539 1541 1542 1544 1545 1547
1533 1533 1533 1532 1532 1532 1531 1531 1531 1530 1530 1530 1529 1529 1528 1528 1527 1527 1526 1526 1525 1525 1525 1525 1524 1524 1524 1523 1523 1522 1522 1521 1521 1521 1521 1521 1521 1520 1520 1519 1518 1518 1517 1517 1517 1517 1517 1516 1517 1517 1517 1516 1516 1516 1516 1515 1515 1515 1517 1519 1516 1514 1516 1515 1516 1515 1515 1515 1515 1517 1517 1519 1521 1521 1523 1524 1528 1535 1537 1538 1538 1539 1540 1542 1544 1546 1547 1549
1533 1533 1533 1532 1532 1532 1531 1531 1530 1530 1530 1529 1529 1528 1528 1527 1527 1527 1526 1526 1526 1525 1525 1524 1524 1524 1524 1523 1523 1522 1522 1522 1522 1521 1521 1521 1520 1520 1519 1519 1518 1517 1517 1516 1516 1516 1516 1516 1516 1516 1516 1515 1515 1515 1515 1513 1514 1514 1514 1513 1512 1513 1514 1515 1515 1514 1515 1514 1514 1515 1516 1520 1521 1524 1527 1525 1530 1538 1539 1539 1539 1540 1541 1543 1545 1547 1549 1549
1533 1533 1533 1532 1532 1532 1531 1531 1531 1530 1530 1529 1529 1528 1528 1527 1527 1526 1526 1526 1525 1525 1525 1524 1524 1523 1523 1523 1523 1522 1522 1523 1523 1521 1522 1521 1520 1519 1519 1518 1517 1517 1516 1516 1516 1515 1515 1515 1515 1516 1515 1515 1515 1514 1513 1512 1513 1513 1512 1510 1511 1512 1513 1513 1513 1513 1514 1513 1514 1515 1517 1520 1522 1528 1532 1530 1534 1539 1539 1540 1540 1542 1543 1544 1545 1546 1547 1547
1533 1533 1533 1532 1532 1532 1531 1531 1531 1530 1530 1529 1529 1528 1528 1527 1527 1526 1526 1525 1525 1525 1524 1524 1523 1523 1523 1523 1523 1522 1522 1523 1522 1522 1522 1520 1519 1519 1518 1517 1517 1516 1515 1515 1515 1515 1515 1515 1515 1515 1515 1515 1514 1514 1512 1511 1511 1512 1511 1509 1509 1511 1511 1512 1512 1513 1514 1514 1515 1516 1518 1521 1522 1529 1534 1534 1538 1540 1539 1540 1540 1541 1543 1543 1544 1545 1545 1546
1534 1533 1533 1533 1532 1532 1532 1531 1531 1531 1530 1530 1529 1528 1528 1527 1526 1526 1525 1525 1525 1524 1524 1523 1523 1523 1523 1523 1522 1522 1523 1523 1523 1522 1521 1519 1518 1518 1517 1516 1516 1516 1515 1515 1514 1515 1515 1515 1515 1515 1515 1515 1514 1513 1512 1511 1510 1510 1510 1509 1509 1509 1510 1511 1512 1513 1513 1514 1515 1516 1520 1524 1525 1529 1535 1538 1541 1541 1540 1540 1540 1540 1541 1543 1544 1545 1546 1546
1534 1534 1533 1533 1533 1532 1532 1532 1531 1531 1531 1530 1529 1528 1528 1527 1526 1526 1525 1525 1524 1524 1524 1523 1523 1523 1523 1523 1522 1523 1523 1523 1523 1521 1520 1519 1518 1517 1516 1516 1515 1515 1515 1515 1514 1515 1515 1514 1515 1515 1515 1514 1513 1512 1511 1512 1511 1510 1510 1510 1509 1509 1510 1511 1512 1512 1513 1514 1515 1518 1525 1529 1527 1529 1537 1542 1542 1541 1540 1539 1540 1540 1541 1543 1544 1546 1547 1547
1535 1534 1534 1534 1533 1533 1532 1532 1532 1531 1531 1530 1529 1528 1528 1527 1526 1525 1525 1524 1524 1524 1523 1523 1523 1523 1523 1523 1523 1523 1523 1523 1522 1521 1520 1519 1518 1517 1516 1515 1514 1514 1514 1514 1514 1514 1514 1514 1514 1515 1515 1514 1513 1512 1511 1512 1512 1510 1509 1509 1509 1509 1510 1510 1512 1511 1512 1514 1514 1520 1528 1530 1527 1529 1540 1546 1543 1541 1540 1540 1541 1541 1542 1544 1545 1546 1547 1547
1535 1535 1534 1534 1533 1533 1533 1532 1532 1531 1531 1530 1529 1528 1528 1527 1526 1525 1524 1524 1523 1523 1523 1523 1522 1522 1523 1523 1523 1523 1524 1523 1522 1521 1520 1518 1517 1516 1515 1514 1514 1513 1513 1513 1513 1513 1514 1514 1514 1514 1514 1513 1513 1512 1511 1511 1511 1510 1509 1509 1508 1508 1509 1509 1510 1510 1512 1516 1516 1518 1526 1530 1529 1532 1542 1545 1543 1542 1541 1543 1543 1543 1544 1546 1546 1547 1548 1548
1536 1535 1535 1534 1534 1534 1533 1533 1532 1532 1531 1530 1529 1528 1527 1527 1526 1525 1524 1523 1523 1522 1522 1522 1522 1522 1523 1523 1523 1524 1523 1522 1521 1520 1519 1517 1516 1515 1514 1514 1513 1513 1513 1513 1513 1513 1513 1514 1514 1514 1514 1513 1513 1512 1511 1510 1510 1509 1509 1510 1510 1509 1508 1508 1508 1509 1511 1515 1517 1516 1522 1534 1537 1539 1544 1544 1544 1543 1543 1545 1546 1546 1547 1547 1548 1548 1549 1550
1536 1535 1535 1535 1534 1533 1533 1533 1532 1531 1531 1530 1529 1528 1527 1526 1525 1524 1523 1523 1522 1522 1522 1522 1522 1522 1522 1523 1523 1523 1523 1522 1520 1519 1518 1517 1516 1515 1513 1513 1512 1512 1512 1512 1512 1512 1513 1513 1513 1513 1513 1513 1513 1512 1511 1510 1510 1510 1510 1511 1512 1512 1510 1508 1507 1509 1511 1513 1516 1514 1522 1542 1546 1543 1546 1544 1544 1544 1545 1548 1548 1549 1549 1549 1550 1550 1551 1552
1536 1535 1535 1534 1534 1533 1533 1532 1532 1531 1530 1530 1529 1528 1527 1526 1525 1524 1523 1522 1521 1521 1522 1522 1522 1522 1522 1523 1523 1523 1522 1521 1520 1519 1518 1516 1515 1514 1513 1512 1511 1511 1512 1512 1512 1512 1512 1513 1513 1513 1513 1513 1512 1512 1511 1511 1510 1509 1511 1512 1514 1516 1513 1510 1509 1510 1512 1514 1516 1514 1526 1546 1547 1544 1546 1545 1545 1545 1547 1551 1551 1551 1551 1552 1552 1551 1552 1553
1535 1535 1534 1534 1534 1533 1533 1532 1531 1531 1530 1529 1528 1527 1526 1525 1524 1523 1522 1521 1521 1521 1522 1521 1522 1522 1522 1523 1523 1523 1522 1521 1520 1519 1517 1515 1514 1513 1512 1511 1511 1511 1511 1511 1511 1512 1512 1512 1512 1512 1512 1512 1512 1512 1513 1512 1511 1510 1513 1515 1516 1518 1515 1513 1511 1512 1513 1515 1515 1515 1531 1547 1545 1544 1546 1545 1546 1545 1548 1552 1552 1553 1553 1553 1554 1553 1554 1554
1535 1534 1534 1534 1533 1533 1532 1531 1531 1530 1530 1529 1528 1527 1526 1525 1524 1523 1522 1522 1521 1521 1521 1521 1522 1522 1523 1524 1524 1523 1522 1520 1520 1519 1517 1515 1513 1512 1511 1511 1511 1511 1511 1512 1512 1511 1512 1512 1512 1512 1512 1512 1513 1514 1516 1516 1514 1514 1516 1517 1516 1517 1517 1515 1513 1513 1512 1514 1517 1518 1532 1546 1543 1544 1546 1545 1546 1546 1549 1553 1554 1555 1555 1555 1555 1555 1555 1556
1534 1534 1533 1533 1532 1532 1532 1531 1530 1530 1529 1528 1528 1526 1526 1525 1525 1523 1522 1522 1522 1522 1522 1522 1522 1522 1523 1524 1524 1523 1521 1521 1520 1519 1517 1515 1513 1512 1512 1511 1511 1511 1511 1511 1512 1511 1512 1512 1512 1513 1513 1515 1515 1515 1519 1522 1520 1518 1519 1518 1517 1517 1517 1517 1514 1514 1512 1514 1521 1525 1533 1542 1542 1544 1547 1546 1546 1547 1550 1553 1554 1556 1556 1556 1556 1556 1557 1557
1534 1533 1533 1533 1532 1532 1531 1530 1530 1529 1528 1528 1527 1526 1525 1525 1525 1524 1523 1522 1523 1522 1522 1523 1523 1524 1525 1524 1524 1524 1522 1521 1520 1518 1517 1514 1513 1512 1512 1511 1511 1511 1511 1511 1511 1511 1512 1512 1512 1514 1515 1518 1518 1518 1521 1524 1523 1522 1521 1520 1519 1517 1516 1517 1515 1515 1515 1519 1527 1530 1535 1541 1543 1545 1547 1548 1547 1548 1551 1553 1555 1556 1556 1557 1557 1558 1558 1558
1534 1533 1533 1532 1532 1531 1530 1530 1529 1528 1528 1527 1526 1525 1525 1525 1525 1525 1524 1523 1523 1524 1526 1527 1526 1528 1530 1527 1526 1524 1523 1522 1520 1518 1516 1513 1512 1512 1511 1511 1511 1511 1511 1511 1511 1511 1512 1513 1515 1518 1521 1522 1521 1522 1522 1522 1522 1521 1521 1521 1521 1519 1517 1517 1516 1516 1517 1524 1532 1534 1537 1542 1544 1546 1547 1549 1549 1549 1552 1554 1555 1557 1557 1558 1558 1559 1559 1559
1533 1533 1532 1532 1531 1530 1530 1529 1528 1528 1527 1526 1525 1525 1524 1525 1525 1526 1526 1524 1525 1527 1529 1530 1529 1530 1529 1527 1526 1524 1523 1522 1521 1519 1516 1513 1512 1512 1511 1511 1511 1511 1511 1512 1512 1512 1512 1516 1521 1523 1524 1523 1522 1522 1521 1520 1520 1520 1521 1519 1519 1520 1519 1517 1516 1517 1517 1525 1537 1538 1539 1544 1545 1548 1549 1549 1550 1551 1553 1555 1556 1557 1558 1559 1559 1559 1560 1560
1533 1532 1532 1531 1530 1530 1529 1528 1527 1527 1526 1525 1524 1524 1524 1524 1525 1526 1527 1526 1528 1529 1530 1530 1530 1529 1528 1527 1526 1524 1523 1522 1521 1519 1516 1514 1512 1511 1511 1511 1511 1513 1513 1512 1511 1512 1513 1519 1524 1524 1523 1523 1522 1521 1520 1520 1519 1519 1520 1519 1520 1519 1519 1518 1517 1517 1516 1524 1541 1542 1542 1548 1549 1549 1550 1550 1551 1552 1553 1554 1556 1557 1558 1559 1559 1560 1560 1560
1533 1532 1531 1530 1530 1529 1528 1527 1526 1526 1525 1525 1524 1524 1524 1523 1524 1525 1526 1528 1530 1530 1530 1530 1530 1529 1528 1528 1526 1525 1525 1523 1521 1519 1516 1515 1513 1512 1512 1512 1514 1516 1515 1513 1513 1516 1519 1523 1525 1523 1523 1522 1521 1521 1520 1520 1519 1520 1520 1520 1521 1519 1518 1518 1517 1518 1517 1525 1542 1545 1544 1551 1551 1551 1551 1551 1552 1553 1554 1554 1555 1557 1558 1559 1559 1559 1560 1560
1532 1531 1530 1530 1529 1528 1527 1526 1526 1525 1525 1525 1524 1524 1524 1524 1524 1525 1525 1527 1530 1530 1530 1530 1530 1529 1528 1528 1527 1526 1526 1524 1523 1521 1518 1516 1515 1514 1515 1515 1516 1517 1517 1518 1518 1520 1524 1525 1524 1523 1522 1522 1522 1522 1521 1521 1521 1521 1521 1520 1521 1521 1520 1520 1518 1518 1519 1524 1537 1545 1549 1554 1553 1553 1553 1552 1553 1554 1554 1555 1556 1556 1557 1558 1559 1559 1560 1560
1531 1530 1530 1529 1528 1527 1526 1526 1525 1525 1524 1524 1524 1523 1523 1524 1524 1525 1525 1526 1529 1531 1531 1531 1530 1530 1529 1529 1528 1527 1526 1527 1526 1523 1521 1519 1517 1517 1517 1517 1518 1519 1520 1521 1520 1521 1525 1525 1523 1522 1522 1522 1522 1524 1524 1524 1523 1523 1522 1521 1522 1522 1522 1522 1521 1519 1521 1529 1535 1540 1547 1554 1555 1554 1555 1555 1554 1555 1556 1556 1557 1558 1558 1559 1560 1560 1560 1560
1531 1530 1529 1528 1527 1526 1525 1525 1524 1524 1524 1523 1523 1523 1523 1523 1524 1524 1525 1527 1531 1532 1531 1532 1531 1531 1531 1529 1528 1527 1527 1527 1527 1526 1524 1522 1520 1519 1519 1519 1520 1521 1522 1522 1521 1522 1525 1525 1523 1522 1522 1522 1523 1525 1528 1527 1526 1525 1523 1523 1523 1522 1521 1521 1522 1521 1522 1529 1531 1529 1532 1545 1556 1557 1556 1556 1555 1556 1557 1557 1558 1558 1559 1559 1559 1560 1560 1560
1530 1530 1529 1528 1527 1526 1525 1525 1524 1523 1523 1523 1523 1522 1522 1523 1523 1524 1525 1529 1535 1535 1533 1533 1533 1532 1531 1530 1528 1526 1528 1528 1528 1528 1526 1523 1522 1520 1521 1522 1521 1523 1523 1522 1523 1524 1526 1525 1525 1524 1524 1524 1524 1526 1528 1529 1529 1525 1522 1523 1522 1522 1522 1521 1522 1523 1521 1521 1522 1522 1521 1534 1555 1558 1555 1557 1556 1557 1558 1557 1558 1558 1558 1559 1559 1560 1560 1560
1530 1529 1528 1527 1527 1526 1525 1524 1523 1523 1522 1522 1522 1521 1522 1522 1523 1524 1526 1533 1540 1538 1536 1535 1534 1534 1533 1532 1529 1527 1532 1532 1529 1529 1527 1525 1523 1521 1523 1525 1524 1524 1524 1523 1525 1527 1527 1526 1526 1526 1525 1525 1526 1527 1528 1529 1529 1524 1521 1523 1522 1522 1522 1521 1523 1524 1522 1519 1520 1522 1519 1525 1546 1555 1554 1556 1557 1557 1558 1557 1558 1558 1558 1559 1558 1559 1559 1559
1530 1529 1528 1527 1526 1525 1524 1523 1523 1522 1522 1522 1521 1521 1522 1521 1523 1524 1527 1540 1545 1539 1538 1538 1535 1536 1535 1534 1532 1531 1534 1533 1530 1531 1530 1527 1524 1522 1524 1527 1527 1527 1525 1525 1528 1530 1530 1529 1529 1528 1528 1528 1528 1529 1529 1529 1528 1524 1522 1524 1523 1522 1522 1522 1524 1523 1523 1524 1521 1520 1520 1522 1540 1553 1553 1556 1557 1557 1558 1557 1556 1556 1557 1557 1558 1558 1559 1559
1530 1529 1528 1527 1525 1524 1524 1523 1522 1522 1521 1521 1521 1521 1521 1521 1524 1524 1528 1542 1546 1541 1541 1539 1536 1537 1536 1535 1533 1533 1534 1533 1533 1534 1531 1529 1526 1524 1526 1528 1527 1526 1526 1526 1529 1531 1531 1531 1532 1531 1531 1532 1531 1529 1529 1528 1527 1524 1523 1523 1520 1520 1522 1521 1523 1523 1523 1526 1520 1517 1518 1521 1539 1555 1555 1554 1556 1554 1554 1555 1555 1555 1555 1556 1557 1557 1557 1558
1529 1529 1528 1526 1525 1524 1523 1522 1522 1521 1521 1520 1521 1521 1521 1522 1524 1527 1536 1546 1545 1542 1542 1539 1539 1540 1539 1537 1535 1534 1535 1534 1534 1534 1532 1532 1530 1527 1527 1528 1527 1527 1529 1529 1530 1533 1533 1532 1532 1533 1533 1534 1532 1529 1527 1527 1527 1525 1524 1523 1518 1517 1520 1521 1523 1524 1523 1524 1519 1516 1516 1516 1530 1551 1555 1552 1551 1550 1551 1553 1554 1554 1554 1554 1555 1556 1556 1556
1529 1528 1527 1526 1524 1523 1522 1522 1521 1521 1520 1520 1520 1520 1522 1523 1525 1534 1545 1548 1545 1545 1544 1542 1543 1542 1541 1542 1540 1538 1537 1535 1535 1534 1535 1535 1534 1532 1531 1533 1533 1530 1532 1533 1533 1533 1533 1532 1533 1534 1534 1534 1532 1529 1527 1527 1528 1527 1527 1526 1522 1518 1517 1519 1521 1522 1523 1523 1518 1516 1516 1515 1526 1545 1552 1551 1549 1548 1548 1550 1551 1552 1552 1553 1554 1554 1555 1555
1529 1528 1527 1525 1524 1523 1522 1521 1520 1520 1520 1519 1519 1520 1521 1524 1533 1545 1550 1547 1547 1550 1549 1547 1546 1544 1544 1545 1544 1543 1541 1539 1537 1536 1539 1541 1542 1543 1543 1547 1546 1539 1538 1540 1539 1536 1534 1535 1536 1535 1534 1534 1533 1530 1529 1527 1528 1529 1529 1528 1529 1528 1528 1529 1525 1524 1525 1521 1518 1517 1515 1520 1537 1550 1552 1550 1549 1548 1547 1547 1548 1549 1551 1552 1552 1553 1554 1554
1529 1528 1527 1525 1524 1523 1522 1521 1520 1519 1519 1518 1519 1520 1520 1529 1545 1555 1553 1549 1552 1553 1552 1551 1549 1547 1546 1545 1546 1546 1543 1541 1540 1539 1541 1543 1546 1550 1551 1554 1553 1549 1548 1547 1546 1543 1538 1536 1536 1535 1534 1534 1534 1534 1534 1533 1531 1532 1532 1532 1535 1540 1548 1549 1538 1532 1531 1524 1520 1519 1517 1530 1547 1552 1551 1551 1549 1548 1547 1546 1547 1548 1550 1551 1551 1552 1552 1553
1529 1528 1527 1525 1524 1523 1521 1520 1520 1519 1519 1518 1519 1519 1523 1539 1554 1558 1556 1556 1556 1554 1553 1553 1550 1547 1547 1547 1549 1548 1545 1543 1543 1543 1543 1544 1548 1552 1554 1554 1554 1554 1554 1551 1550 1550 1547 1541 1538 1536 1537 1536 1536 1537 1538 1538 1536 1536 1535 1535 1537 1542 1552 1555 1545 1540 1541 1534 1525 1521 1524 1539 1549 1549 1551 1552 1550 1549 1547 1546 1548 1549 1550 1551 1551 1552 1551 1551
1529 1528 1527 1525 1524 1523 1521 1521 1520 1519 1519 1518 1520 1525 1536 1551 1559 1558 1559 1560 1558 1556 1554 1553 1550 1548 1547 1549 1550 1550 1548 1546 1545 1546 1548 1551 1553 1556 1557 1558 1557 1556 1555 1554 1553 1554 1552 1545 1539 1538 1539 1538 1537 1538 1537 1537 1537 1535 1534 1536 1538 1540 1546 1549 1543 1540 1542 1537 1532 1535 1542 1550 1552 1550 1552 1552 1550 1550 1549 1548 1550 1550 1550 1551 1550 1550 1550 1550
1529 1528 1527 1525 1525 1523 1522 1522 1519 1520 1520 1516 1523 1540 1553 1559 1561 1561 1562 1561 1560 1560 1557 1553 1551 1551 1551 1551 1550 1550 1550 1548 1547 1548 1551 1555 1558 1560 1560 1560 1560 1559 1558 1559 1559 1558 1555 1546 1539 1539 1540 1538 1539 1539 1537 1538 1538 1536 1538 1541 1541 1540 1541 1545 1544 1539 1540 1540 1539 1542 1547 1550 1551 1550 1551 1552 1551 1551 1550 1550 1550 1549 1550 1550 1549 1549 1548 1548
1529 1528 1527 1526 1526 1524 1524 1523 1520 1520 1519 1517 1530 1552 1561 1562 1563 1564 1563 1561 1561 1561 1558 1554 1554 1555 1557 1555 1552 1552 1552 1549 1549 1550 1552 1556 1560 1563 1563 1561 1561 1561 1561 1562 1561 1562 1561 1552 1542 1540 1540 1538 1539 1539 1538 1538 1539 1539 1543 1543 1539 1538 1538 1544 1549 1545 1545 1548 1543 1536 1537 1544 1546 1546 1550 1554 1552 1551 1551 1550 1550 1549 1548 1548 1547 1547 1546 1546
1529 1529 1528 1527 1527 1526 1524 1523 1523 1522 1518 1524 1543 1557 1561 1562 1563 1563 1563 1562 1562 1561 1559 1559 1558 1557 1559 1559 1557 1556 1554 1552 1552 1552 1553 1557 1561 1565 1566 1564 1562 1561 1562 1562 1560 1561 1562 1555 1544 1540 1541 1540 1539 1540 1540 1540 1539 1540 1543 1542 1540 1544 1545 1547 1551 1551 1553 1556 1548 1536 1535 1542 1545 1544 1549 1552 1550 1550 1550 1548 1548 1547 1546 1545 1544 1544 1544 1544
1530 1529 1529 1530 1529 1527 1525 1524 1525 1521 1520 1535 1553 1558 1560 1563 1564 1563 1563 1562 1562 1561 1561 1562 1562 1559 1560 1561 1560 1559 1557 1557 1557 1554 1555 1560 1563 1566 1568 1566 1563 1561 1561 1561 1561 1561 1561 1559 1550 1541 1541 1542 1540 1542 1545 1545 1543 1541 1542 1543 1544 1548 1551 1551 1551 1550 1553 1556 1551 1542 1537 1539 1544 1544 1544 1546 1545 1547 1547 1546 1546 1544 1542 1543 1542 1542 1542 1542
1530 1529 1531 1531 1530 1529 1528 1526 1524 1523 1530 1545 1556 1558 1560 1563 1563 1563 1563 1562 1562 1562 1562 1564 1564 1562 1561 1561 1562 1562 1560 1559 1559 1556 1559 1564 1564 1565 1568 1568 1565 1563 1561 1560 1562 1561 1560 1561 1556 1546 1542 1543 1545 1548 1550 1549 1547 1545 1546 1549 1550 1549 1549 1551 1551 1549 1553 1554 1552 1551 1544 1538 1542 1543 1541 1542 1542 1542 1542 1542 1542 1540 1540 1540 1539 1540 1540 1540
1530 1531 1533 1532 1531 1531 1529 1528 1531 1535 1544 1553 1556 1559 1562 1562 1563 1564 1563 1562 1563 1562 1563 1564 1564 1564 1564 1563 1563 1563 1562 1561 1560 1559 1562 1566 1566 1566 1568 1568 1567 1565 1563 1561 1562 1563 1561 1563 1562 1554 1549 1549 1550 1550 1550 1550 1549 1548 1548 1551 1553 1553 1551 1555 1557 1555 1556 1555 1554 1556 1550 1539 1539 1541 1539 1539 1539 1538 1539 1539 1538 1538 1538 1538 1538 1539 1539 1539
1530 1532 1534 1533 1532 1531 1530 1535 1543 1546 1551 1556 1558 1560 1562 1562 1563 1564 1563 1563 1563 1562 1563 1563 1564 1565 1565 1564 1564 1564 1564 1563 1562 1561 1564 1566 1568 1569 1568 1568 1568 1566 1565 1564 1564 1565 1564 1565 1564 1558 1553 1552 1552 1550 1550 1550 1548 1547 1550 1551 1553 1555 1555 1560 1563 1559 1560 1558 1554 1557 1552 1539 1537 1539 1537 1537 1537 1536 1537 1537 1536 1536 1536 1537 1537 1537 1537 1537
1532 1535 1535 1533 1533 1532 1531 1541 1552 1553 1555 1560 1560 1561 1562 1562 1563 1564 1563 1563 1563 1563 1564 1564 1565 1565 1564 1565 1565 1564 1564 1564 1563 1563 1565 1567 1569 1570 1569 1568 1567 1566 1566 1565 1564 1564 1564 1564 1563 1558 1553 1552 1551 1550 1549 1550 1548 1548 1551 1554 1555 1556 1557 1559 1561 1560 1562 1558 1553 1557 1552 1537 1535 1538 1536 1536 1536 1535 1535 1535 1535 1535 1535 1535 1536 1535 1535 1535
1534 1536 1536 1534 1534 1532 1533 1543 1553 1557 1559 1561 1560 1562 1563 1563 1564 1564 1565 1564 1564 1565 1565 1565 1565 1565 1565 1565 1565 1564 1563 1564 1564 1565 1566 1567 1568 1569 1568 1568 1567 1566 1566 1564 1564 1564 1562 1562 1562 1561 1560 1557 1553 1553 1551 1550 1550 1550 1554 1557 1556 1557 1558 1559 1559 1561 1562 1556 1554 1557 1549 1535 1533 1536 1535 1535 1535 1534 1534 1533 1533 1533 1534 1534 1534 1534 1533 1532
1535 1537 1538 1537 1535 1534 1538 1546 1551 1555 1559 1560 1561 1563 1563 1564 1565 1565 1565 1565 1565 1565 1565 1565 1565 1565 1565 1564 1564 1564 1564 1563 1564 1566 1567 1568 1568 1569 1568 1567 1567 1566 1565 1565 1565 1564 1563 1562 1562 1563 1566 1566 1562 1559 1555 1552 1552 1552 1555 1558 1558 1558 1558 1556 1558 1561 1559 1555 1555 1554 1544 1534 1533 1535 1535 1535 1535 1533 1532 1532 1532 1532 1532 1532 1532 1531 1530 1529
1536 1538 1542 1542 1540 1539 1544 1550 1550 1553 1557 1558 1560 1563 1563 1565 1566 1566 1566 1566 1566 1565 1565 1566 1565 1565 1565 1565 1565 1565 1565 1564 1565 1566 1568 1569 1568 1568 1568 1567 1567 1566 1565 1565 1564 1564 1564 1563 1562 1563 1564 1564 1562 1557 1553 1553 1554 1552 1552 1555 1557 1559 1558 1556 1558 1558 1555 1556 1555 1550 1543 1537 1533 1533 1534 1533 1533 1532 1530 1530 1530 1530 1530 1529 1529 1528 1527 1526
1537 1541 1544 1545 1545 1547 1549 1552 1552 1553 1555 1556 1560 1564 1565 1565 1566 1566 1566 1566 1566 1566 1566 1566 1566 1566 1566 1567 1567 1567 1566 1566 1565 1566 1570 1570 1568 1568 1567 1566 1567 1565 1565 1565 1564 1565 1564 1561 1562 1564 1560 1558 1558 1555 1552 1554 1555 1551 1550 1551 1553 1556 1557 1556 1556 1552 1553 1557 1550 1540 1541 1540 1531 1529 1531 1530 1529 1529 1528 1528 1528 1527 1527 1526 1525 1525 1524 1522
1538 1544 1546 1545 1548 1552 1553 1554 1554 1555 1555 1557 1561 1565 1565 1566 1567 1566 1566 1566 1566 1566 1566 1566 1567 1567 1568 1568 1567 1568 1567 1566 1566 1568 1571 1571 1569 1568 1567 1567 1566 1565 1565 1565 1564 1565 1564 1561 1562 1563 1558 1554 1556 1553 1551 1552 1551 1548 1547 1548 1549 1553 1554 1553 1551 1550 1552 1555 1545 1536 1540 1539 1530 1527 1528 1527 1526 1525 1525 1525 1525 1524 1524 1523 1522 1521 1520 1519
1540 1543 1546 1546 1549 1554 1555 1556 1556 1556 1557 1558 1562 1565 1566 1567 1568 1568 1567 1567 1566 1566 1566 1566 1568 1568 1568 1567 1567 1569 1568 1566 1566 1569 1571 1570 1570 1569 1567 1566 1566 1565 1565 1565 1564 1566 1564 1560 1561 1563 1559 1553 1551 1548 1547 1548 1548 1546 1545 1545 1546 1549 1550 1549 1549 1548 1549 1548 1543 1539 1540 1536 1528 1526 1525 1523 1523 1523 1522 1522 1522 1521 1520 1520 1519 1518 1516 1515
1539 1542 1545 1546 1550 1554 1555 1556 1557 1557 1558 1560 1562 1566 1567 1567 1567 1568 1568 1567 1566 1567 1567 1567 1568 1568 1567 1567 1567 1568 1569 1567 1567 1568 1569 1570 1569 1568 1568 1567 1565 1565 1565 1564 1565 1565 1563 1561 1561 1563 1560 1553 1547 1546 1546 1547 1547 1545 1544 1544 1545 1546 1546 1547 1547 1545 1546 1545 1541 1541 1541 1533 1525 1523 1522 1521 1521 1521 1520 1519 1519 1518 1518 1517 1515 1514 1513 1511
1539 1541 1543 1544 1550 1556 1556 1556 1557 1557 1560 1562 1563 1565 1567 1567 1567 1567 1568 1568 1567 1567 1568 1568 1568 1568 1567 1567 1567 1567 1568 1568 1567 1567 1567 1568 1568 1567 1567 1566 1566 1566 1565 1565 1566 1564 1564 1563 1562 1562 1561 1553 1546 1545 1546 1546 1547 1546 1544 1543 1543 1543 1544 1544 1543 1542 1542 1541 1538 1540 1539 1529 1521 1521 1521 1519 1519 1519 1517 1516 1516 1515 1515 1514 1512 1510 1509 1507
1541 1543 1544 1543 1549 1557 1557 1557 1558 1559 1561 1565 1565 1565 1566 1566 1567 1567 1566 1568 1568 1567 1568 1567 1567 1567 1567 1567 1567 1567 1567 1566 1566 1566 1566 1566 1566 1566 1566 1566 1566 1566 1565 1566 1566 1565 1566 1565 1562 1563 1562 1552 1545 1547 1548 1547 1544 1541 1539 1538 1538 1540 1541 1541 1540 1539 1538 1538 1537 1536 1531 1523 1519 1521 1520 1518 1518 1517 1515 1514 1513 1512 1511 1510 1509 1507 1505 1503